Time,TemperatureF,DewpointF,PressureIn,WindDirection,WindDirectionDegrees,WindSpeedMPH,WindSpeedGustMPH,Humidity,HourlyPrecipIn,Conditions,Clouds,dailyrainin,SolarRadiationWatts/m^2,SoftwareType,DateUTC
2013-03-04 00:12:00,35.4,18.0,29.72,North,360,1.0,4.0,50,0.00,,,0.00,0,weatherlink.com 1.10,2013-03-04 07:12:00,
2013-03-04 00:27:00,35.5,20.0,29.72,North,360,0.0,6.0,53,0.00,,,0.00,0,weatherlink.com 1.10,2013-03-04 07:27:00,
2013-03-04 00:42:00,35.2,21.0,29.72,North,360,3.0,3.0,57,0.00,,,0.00,0,weatherlink.com 1.10,2013-03-04 07:42:00,
2013-03-04 00:57:00,35.5,21.0,29.71,North,360,4.0,6.0,57,0.00,,,0.00,0,weatherlink.com 1.10,2013-03-04 07:57:00,
2013-03-04 01:12:00,35.4,23.0,29.71,North,360,2.0,7.0,60,0.00,,,0.00,0,weatherlink.com 1.10,2013-03-04 08:12:00,
2013-03-04 01:27:00,35.3,23.0,29.71,North,360,2.0,7.0,62,0.00,,,0.00,0,weatherlink.com 1.10,2013-03-04 08:27:00,
2013-03-04 01:42:00,35.2,24.0,29.71,North,360,1.0,6.0,64,0.00,,,0.00,0,weatherlink.com 1.10,2013-03-04 08:42:00,
2013-03-04 01:57:00,35.1,24.0,29.70,North,360,5.0,9.0,64,0.00,,,0.00,0,weatherlink.com 1.10,2013-03-04 08:57:00,
2013-03-04 02:12:00,35.0,24.0,29.70,North,360,2.0,7.0,65,0.00,,,0.00,0,weatherlink.com 1.10,2013-03-04 09:12:00,
2013-03-04 02:27:00,34.9,24.0,29.69,North,360,3.0,7.0,65,0.00,,,0.00,0,weatherlink.com 1.10,2013-03-04 09:27:00,
2013-03-04 02:42:00,34.5,24.0,29.69,North,360,2.0,6.0,66,0.00,,,0.00,0,weatherlink.com 1.10,2013-03-04 09:42:00,
2013-03-04 02:57:00,34.3,24.0,29.68,North,360,5.0,7.0,65,0.00,,,0.00,0,weatherlink.com 1.10,2013-03-04 09:57:00,
2013-03-04 03:12:00,34.3,22.0,29.67,North,360,0.0,7.0,62,0.00,,,0.00,0,weatherlink.com 1.10,2013-03-04 10:12:00,
2013-03-04 03:27:00,33.9,22.0,29.67,North,360,1.0,6.0,62,0.00,,,0.00,0,weatherlink.com 1.10,2013-03-04 10:27:00,
2013-03-04 03:42:00,33.8,22.0,29.67,North,360,3.0,6.0,63,0.00,,,0.00,0,weatherlink.com 1.10,2013-03-04 10:42:00,
2013-03-04 03:58:00,33.8,21.0,29.67,North,360,2.0,8.0,60,0.00,,,0.00,0,weatherlink.com 1.10,2013-03-04 10:58:00,
2013-03-04 04:13:00,33.6,21.0,29.66,North,360,4.0,8.0,60,0.00,,,0.00,0,weatherlink.com 1.10,2013-03-04 11:13:00,
2013-03-04 04:28:00,33.6,22.0,29.66,North,360,4.0,6.0,62,0.00,,,0.00,0,weatherlink.com 1.10,2013-03-04 11:28:00,
2013-03-04 04:43:00,33.4,20.0,29.66,North,360,4.0,7.0,59,0.00,,,0.00,0,weatherlink.com 1.10,2013-03-04 11:43:00,
2013-03-04 04:58:00,33.2,20.0,29.67,North,360,4.0,10.0,58,0.00,,,0.00,0,weatherlink.com 1.10,2013-03-04 11:58:00,
2013-03-04 05:13:00,33.0,20.0,29.67,North,360,4.0,7.0,59,0.00,,,0.00,0,weatherlink.com 1.10,2013-03-04 12:13:00,
2013-03-04 05:28:00,32.6,20.0,29.67,North,360,5.0,7.0,61,0.00,,,0.00,0,weatherlink.com 1.10,2013-03-04 12:28:00,
2013-03-04 05:43:00,32.6,19.0,29.67,North,360,2.0,8.0,58,0.00,,,0.00,0,weatherlink.com 1.10,2013-03-04 12:43:00,
2013-03-04 05:58:00,32.2,19.0,29.67,North,360,2.0,8.0,58,0.00,,,0.00,0,weatherlink.com 1.10,2013-03-04 12:58:00,
2013-03-04 06:13:00,31.9,19.0,29.67,North,360,3.0,7.0,59,0.00,,,0.00,0,weatherlink.com 1.10,2013-03-04 13:13:00,
2013-03-04 06:28:00,31.6,19.0,29.66,North,360,2.0,6.0,60,0.00,,,0.00,5,weatherlink.com 1.10,2013-03-04 13:28:00,
2013-03-04 06:43:00,31.4,19.0,29.67,North,360,3.0,7.0,60,0.00,,,0.00,16,weatherlink.com 1.10,2013-03-04 13:43:00,
2013-03-04 06:58:00,31.5,19.0,29.67,North,360,4.0,11.0,59,0.00,,,0.00,47,weatherlink.com 1.10,2013-03-04 13:58:00,
2013-03-04 07:28:00,31.9,19.0,29.68,North,360,4.0,11.0,60,0.00,,,0.00,76,weatherlink.com 1.10,2013-03-04 14:28:00,
2013-03-04 07:43:00,32.4,19.0,29.68,North,360,2.0,12.0,57,0.00,,,0.00,134,weatherlink.com 1.10,2013-03-04 14:43:00,
2013-03-04 07:58:00,32.9,19.0,29.68,North,360,1.0,11.0,58,0.00,,,0.00,135,weatherlink.com 1.10,2013-03-04 14:58:00,
2013-03-04 08:13:00,32.6,19.0,29.69,North,360,2.0,11.0,58,0.00,,,0.00,128,weatherlink.com 1.10,2013-03-04 15:13:00,
2013-03-04 08:28:00,32.7,20.0,29.68,North,360,6.0,12.0,60,0.00,,,0.00,181,weatherlink.com 1.10,2013-03-04 15:28:00,
2013-03-04 08:43:00,32.9,20.0,29.68,North,360,9.0,10.0,59,0.00,,,0.00,193,weatherlink.com 1.10,2013-03-04 15:43:00,
2013-03-04 08:58:00,33.3,19.0,29.68,North,360,5.0,11.0,57,0.00,,,0.00,255,weatherlink.com 1.10,2013-03-04 15:58:00,
2013-03-04 09:13:00,33.3,21.0,29.67,North,360,3.0,10.0,60,0.00,,,0.00,181,weatherlink.com 1.10,2013-03-04 16:13:00,
2013-03-04 09:28:00,33.3,20.0,29.67,North,360,4.0,10.0,59,0.00,,,0.00,538,weatherlink.com 1.10,2013-03-04 16:28:00,
2013-03-04 09:43:00,33.9,21.0,29.68,North,360,3.0,9.0,59,0.00,,,0.00,534,weatherlink.com 1.10,2013-03-04 16:43:00,
2013-03-04 09:58:00,34.1,21.0,29.68,North,360,2.0,8.0,59,0.00,,,0.00,527,weatherlink.com 1.10,2013-03-04 16:58:00,
2013-03-04 10:13:00,33.9,22.0,29.67,North,360,2.0,8.0,61,0.00,,,0.00,239,weatherlink.com 1.10,2013-03-04 17:13:00,
2013-03-04 10:28:00,34.6,22.0,29.67,North,360,2.0,11.0,60,0.00,,,0.00,330,weatherlink.com 1.10,2013-03-04 17:28:00,
2013-03-04 10:43:00,34.7,23.0,29.67,North,360,3.0,11.0,62,0.00,,,0.00,297,weatherlink.com 1.10,2013-03-04 17:43:00,
2013-03-04 10:58:00,35.3,23.0,29.66,North,360,5.0,10.0,60,0.00,,,0.00,309,weatherlink.com 1.10,2013-03-04 17:58:00,
2013-03-04 11:14:00,36.8,23.0,29.66,North,360,4.0,10.0,57,0.00,,,0.00,888,weatherlink.com 1.10,2013-03-04 18:14:00,
2013-03-04 11:29:00,37.1,23.0,29.66,WNW,298,4.0,9.0,56,0.00,,,0.00,367,weatherlink.com 1.10,2013-03-04 18:29:00,
2013-03-04 11:44:00,38.5,23.0,29.66,SSW,209,8.0,11.0,53,0.00,,,0.00,1107,weatherlink.com 1.10,2013-03-04 18:44:00,
2013-03-04 11:59:00,38.6,22.0,29.65,SW,221,6.0,10.0,52,0.00,,,0.00,940,weatherlink.com 1.10,2013-03-04 18:59:00,
2013-03-04 12:14:00,37.8,23.0,29.66,North,360,2.0,7.0,55,0.00,,,0.00,431,weatherlink.com 1.10,2013-03-04 19:14:00,
2013-03-04 12:29:00,38.3,21.0,29.65,WSW,245,3.0,10.0,51,0.00,,,0.00,824,weatherlink.com 1.10,2013-03-04 19:29:00,
2013-03-04 12:44:00,38.3,21.0,29.65,SW,229,5.0,17.0,50,0.00,,,0.00,473,weatherlink.com 1.10,2013-03-04 19:44:00,
2013-03-04 12:59:00,37.0,22.0,29.64,SW,216,5.0,9.0,55,0.00,,,0.00,432,weatherlink.com 1.10,2013-03-04 19:59:00,
2013-03-04 13:14:00,36.5,22.0,29.66,North,360,6.0,10.0,55,0.00,,,0.00,158,weatherlink.com 1.10,2013-03-04 20:14:00,
2013-03-04 13:29:00,33.8,24.0,29.67,North,360,8.0,9.0,68,0.00,,,0.00,98,weatherlink.com 1.10,2013-03-04 20:29:00,
2013-03-04 13:44:00,33.2,25.0,29.67,North,360,3.0,7.0,71,0.00,,,0.00,114,weatherlink.com 1.10,2013-03-04 20:44:00,
2013-03-04 13:59:00,32.9,24.0,29.68,North,360,0.0,5.0,71,0.00,,,0.00,79,weatherlink.com 1.10,2013-03-04 20:59:00,
2013-03-04 14:14:00,33.2,24.0,29.68,North,360,0.0,5.0,70,0.00,,,0.00,128,weatherlink.com 1.10,2013-03-04 21:14:00,
2013-03-04 14:28:00,34.7,24.0,29.68,North,360,4.0,4.0,66,0.00,,,0.00,267,weatherlink.com 1.10,2013-03-04 21:28:00,
2013-03-04 14:44:00,36.4,22.0,29.69,North,360,2.0,5.0,57,0.00,,,0.00,104,weatherlink.com 1.10,2013-03-04 21:44:00,
2013-03-04 14:58:00,36.4,22.0,29.70,North,360,0.0,5.0,56,0.00,,,0.00,81,weatherlink.com 1.10,2013-03-04 21:58:00,
2013-03-04 15:14:00,36.1,22.0,29.70,North,360,1.0,8.0,57,0.00,,,0.00,185,weatherlink.com 1.10,2013-03-04 22:14:00,
2013-03-04 15:29:00,35.9,22.0,29.71,North,360,2.0,7.0,58,0.00,,,0.00,141,weatherlink.com 1.10,2013-03-04 22:29:00,
2013-03-04 15:44:00,35.9,23.0,29.72,North,360,4.0,10.0,59,0.00,,,0.00,276,weatherlink.com 1.10,2013-03-04 22:44:00,
2013-03-04 15:59:00,36.5,22.0,29.72,North,360,1.0,11.0,57,0.00,,,0.00,446,weatherlink.com 1.10,2013-03-04 22:59:00,
2013-03-04 16:14:00,36.6,21.0,29.73,North,360,6.0,6.0,54,0.00,,,0.00,102,weatherlink.com 1.10,2013-03-04 23:14:00,
2013-03-04 16:29:00,37.2,21.0,29.72,WNW,288,1.0,6.0,52,0.00,,,0.00,339,weatherlink.com 1.10,2013-03-04 23:29:00,
2013-03-04 16:44:00,38.4,20.0,29.72,WSW,249,4.0,7.0,48,0.00,,,0.00,265,weatherlink.com 1.10,2013-03-04 23:44:00,
2013-03-04 16:59:00,36.7,20.0,29.73,North,360,1.0,7.0,51,0.00,,,0.00,25,weatherlink.com 1.10,2013-03-04 23:59:00,
2013-03-04 17:14:00,35.9,19.0,29.74,North,360,3.0,9.0,51,0.00,,,0.00,21,weatherlink.com 1.10,2013-03-05 00:14:00,
2013-03-04 17:29:00,36.0,19.0,29.75,North,360,1.0,8.0,51,0.00,,,0.00,16,weatherlink.com 1.10,2013-03-05 00:29:00,
2013-03-04 17:44:00,35.7,21.0,29.75,North,360,2.0,9.0,56,0.00,,,0.00,18,weatherlink.com 1.10,2013-03-05 00:44:00,
2013-03-04 17:59:00,35.7,19.0,29.76,North,360,3.0,13.0,50,0.00,,,0.00,5,weatherlink.com 1.10,2013-03-05 00:59:00,
2013-03-04 18:14:00,35.2,19.0,29.77,North,360,3.0,12.0,52,0.00,,,0.00,0,weatherlink.com 1.10,2013-03-05 01:14:00,
2013-03-04 18:29:00,34.8,18.0,29.78,North,360,7.0,13.0,51,0.00,,,0.00,0,weatherlink.com 1.10,2013-03-05 01:29:00,
2013-03-04 18:44:00,34.4,19.0,29.79,North,360,4.0,13.0,53,0.00,,,0.00,0,weatherlink.com 1.10,2013-03-05 01:44:00,
2013-03-04 18:59:00,34.1,19.0,29.80,North,360,1.0,10.0,55,0.00,,,0.00,0,weatherlink.com 1.10,2013-03-05 01:59:00,
2013-03-04 19:14:00,33.9,19.0,29.82,North,360,7.0,9.0,55,0.00,,,0.00,0,weatherlink.com 1.10,2013-03-05 02:14:00,
2013-03-04 19:29:00,33.7,18.0,29.84,North,360,0.0,11.0,53,0.00,,,0.00,0,weatherlink.com 1.10,2013-03-05 02:29:00,
2013-03-04 19:44:00,33.6,19.0,29.86,North,360,2.0,12.0,55,0.00,,,0.00,0,weatherlink.com 1.10,2013-03-05 02:44:00,
2013-03-04 19:59:00,33.2,19.0,29.86,North,360,4.0,7.0,57,0.00,,,0.00,0,weatherlink.com 1.10,2013-03-05 02:59:00,
2013-03-04 20:14:00,32.8,18.0,29.88,North,360,4.0,8.0,55,0.00,,,0.00,0,weatherlink.com 1.10,2013-03-05 03:14:00,
2013-03-04 20:29:00,32.9,18.0,29.89,North,360,2.0,7.0,54,0.00,,,0.00,0,weatherlink.com 1.10,2013-03-05 03:29:00,
2013-03-04 20:44:00,32.9,19.0,29.89,North,360,1.0,9.0,58,0.00,,,0.00,0,weatherlink.com 1.10,2013-03-05 03:44:00,
2013-03-04 20:59:00,32.9,19.0,29.90,North,360,1.0,6.0,58,0.00,,,0.00,0,weatherlink.com 1.10,2013-03-05 03:59:00,
2013-03-04 21:14:00,32.8,19.0,29.91,North,360,2.0,5.0,58,0.00,,,0.00,0,weatherlink.com 1.10,2013-03-05 04:14:00,
2013-03-04 21:30:00,32.4,20.0,29.91,North,360,3.0,6.0,60,0.00,,,0.00,0,weatherlink.com 1.10,2013-03-05 04:30:00,
2013-03-04 21:45:00,32.1,20.0,29.92,North,360,0.0,2.0,61,0.00,,,0.00,0,weatherlink.com 1.10,2013-03-05 04:45:00,
2013-03-04 22:00:00,31.1,20.0,29.93,North,360,0.0,4.0,63,0.00,,,0.00,0,weatherlink.com 1.10,2013-03-05 05:00:00,
2013-03-04 22:15:00,30.0,19.0,29.94,North,360,0.0,3.0,64,0.00,,,0.00,0,weatherlink.com 1.10,2013-03-05 05:15:00,
2013-03-04 22:30:00,28.3,19.0,29.96,North,360,2.0,5.0,67,0.00,,,0.00,0,weatherlink.com 1.10,2013-03-05 05:30:00,
2013-03-04 22:45:00,27.1,19.0,29.97,North,360,0.0,4.0,70,0.00,,,0.00,0,weatherlink.com 1.10,2013-03-05 05:45:00,
2013-03-04 23:00:00,27.2,18.0,29.97,SW,227,4.0,4.0,68,0.00,,,0.00,0,weatherlink.com 1.10,2013-03-05 06:00:00,
2013-03-04 23:15:00,26.3,17.0,29.97,West,275,1.0,3.0,69,0.00,,,0.00,0,weatherlink.com 1.10,2013-03-05 06:15:00,
2013-03-04 23:30:00,25.4,18.0,29.98,West,272,0.0,2.0,72,0.00,,,0.00,0,weatherlink.com 1.10,2013-03-05 06:30:00,
2013-03-04 23:45:00,24.4,17.0,29.98,West,271,0.0,2.0,73,0.00,,,0.00,0,weatherlink.com 1.10,2013-03-05 06:45:00,